Time,TemperatureF,DewpointF,PressureIn,WindDirection,WindDirectionDegrees,WindSpeedMPH,WindSpeedGustMPH,Humidity,HourlyPrecipIn,Conditions,Clouds,dailyrainin,SoftwareType,DateUTC
2015-01-31 00:02:00,20.5,15.1,30.19,North,-999,-999.0,-999.0,79,0.00,,,0.39,meteohub,2015-01-31 06:02:00,
2015-01-31 00:07:00,20.5,15.1,30.20,North,-999,-999.0,-999.0,79,0.00,,,0.00,meteohub,2015-01-31 06:07:00,
2015-01-31 00:12:00,20.7,15.3,30.20,North,-999,-999.0,-999.0,79,0.00,,,0.00,meteohub,2015-01-31 06:12:00,
2015-01-31 00:17:00,20.8,15.4,30.19,North,-999,-999.0,-999.0,79,0.00,,,0.00,meteohub,2015-01-31 06:17:00,
2015-01-31 00:22:00,20.8,15.6,30.19,North,-999,-999.0,-999.0,80,0.00,,,0.00,meteohub,2015-01-31 06:22:00,
2015-01-31 00:27:00,20.8,15.6,30.19,North,-999,-999.0,-999.0,80,0.00,,,0.00,meteohub,2015-01-31 06:27:00,
2015-01-31 00:32:00,20.8,15.6,30.19,North,-999,-999.0,-999.0,80,0.00,,,0.00,meteohub,2015-01-31 06:32:00,
2015-01-31 00:37:00,20.8,15.6,30.18,North,-999,-999.0,-999.0,80,0.00,,,0.00,meteohub,2015-01-31 06:37:00,
2015-01-31 00:42:00,20.8,16.0,30.18,North,-999,-999.0,-999.0,81,0.00,,,0.00,meteohub,2015-01-31 06:42:00,
2015-01-31 00:47:00,20.8,16.0,30.18,North,-999,-999.0,-999.0,81,0.33,,,0.33,meteohub,2015-01-31 06:47:00,
2015-01-31 00:52:00,20.8,16.0,30.18,North,-999,-999.0,-999.0,81,0.33,,,0.33,meteohub,2015-01-31 06:52:00,
2015-01-31 00:57:00,20.8,16.0,30.19,North,-999,-999.0,-999.0,81,0.33,,,0.33,meteohub,2015-01-31 06:57:00,
2015-01-31 01:02:00,20.7,15.8,30.18,North,-999,-999.0,-999.0,81,0.33,,,0.33,meteohub,2015-01-31 07:02:00,
2015-01-31 01:07:00,20.7,15.8,30.18,North,-999,-999.0,-999.0,81,0.33,,,0.33,meteohub,2015-01-31 07:07:00,
2015-01-31 01:13:00,20.7,15.8,30.18,North,-999,-999.0,-999.0,81,0.33,,,0.33,meteohub,2015-01-31 07:13:00,
2015-01-31 01:18:00,20.7,20.7,30.18,North,-999,-999.0,-999.0,0,0.33,,,0.33,meteohub,2015-01-31 07:18:00,
2015-01-31 01:23:00,20.7,20.7,30.18,North,-999,-999.0,-999.0,0,0.33,,,0.33,meteohub,2015-01-31 07:23:00,
2015-01-31 01:28:00,20.8,16.0,30.18,North,-999,-999.0,-999.0,81,0.33,,,0.33,meteohub,2015-01-31 07:28:00,
2015-01-31 01:33:00,20.8,16.0,30.18,North,-999,-999.0,-999.0,81,0.33,,,0.33,meteohub,2015-01-31 07:33:00,
2015-01-31 01:38:00,20.5,20.5,30.17,North,-999,-999.0,-999.0,0,0.33,,,0.33,meteohub,2015-01-31 07:38:00,
2015-01-31 01:43:00,20.1,15.4,30.17,North,-999,-999.0,-999.0,82,0.33,,,0.33,meteohub,2015-01-31 07:43:00,
2015-01-31 01:48:00,20.1,15.4,30.17,North,-999,-999.0,-999.0,82,0.00,,,0.33,meteohub,2015-01-31 07:48:00,
2015-01-31 01:54:00,20.1,15.4,30.16,North,-999,-999.0,-999.0,82,0.00,,,0.33,meteohub,2015-01-31 07:54:00,
2015-01-31 01:59:00,19.8,15.4,30.16,North,-999,-999.0,-999.0,83,0.00,,,0.33,meteohub,2015-01-31 07:59:00,
2015-01-31 02:04:00,19.8,15.4,30.16,North,-999,-999.0,-999.0,83,0.00,,,0.33,meteohub,2015-01-31 08:04:00,
2015-01-31 02:09:00,19.8,15.4,30.15,North,-999,-999.0,-999.0,83,0.00,,,0.33,meteohub,2015-01-31 08:09:00,
2015-01-31 02:15:00,19.6,15.6,30.16,North,-999,-999.0,-999.0,84,0.00,,,0.33,meteohub,2015-01-31 08:15:00,
2015-01-31 02:20:00,19.6,15.6,30.15,North,-999,-999.0,-999.0,84,0.00,,,0.33,meteohub,2015-01-31 08:20:00,
2015-01-31 02:25:00,19.6,15.6,30.15,North,-999,-999.0,-999.0,84,0.00,,,0.33,meteohub,2015-01-31 08:25:00,
2015-01-31 02:30:00,19.4,15.4,30.15,North,-999,-999.0,-999.0,84,0.00,,,0.33,meteohub,2015-01-31 08:30:00,
2015-01-31 02:35:00,19.4,15.4,30.14,North,-999,-999.0,-999.0,84,0.00,,,0.33,meteohub,2015-01-31 08:35:00,
2015-01-31 02:40:00,19.4,15.4,30.14,North,-999,-999.0,-999.0,84,0.00,,,0.33,meteohub,2015-01-31 08:40:00,
2015-01-31 02:55:00,18.0,14.2,30.13,North,-999,-999.0,-999.0,85,0.00,,,0.33,meteohub,2015-01-31 08:55:00,
2015-01-31 03:00:00,18.0,14.2,30.13,North,-999,-999.0,-999.0,85,0.00,,,24.52,meteohub,2015-01-31 09:00:00,
2015-01-31 03:05:00,18.0,14.2,30.13,North,-999,-999.0,-999.0,85,24.19,,,24.52,meteohub,2015-01-31 09:05:00,
2015-01-31 03:10:00,18.0,14.2,30.13,North,-999,-999.0,-999.0,85,24.19,,,24.52,meteohub,2015-01-31 09:10:00,
2015-01-31 03:24:00,31.1,27.1,30.13,North,-999,-999.0,-999.0,85,24.19,,,24.52,meteohub,2015-01-31 09:24:00,
2015-01-31 03:29:00,31.1,27.1,30.12,North,-999,-999.0,-999.0,85,24.19,,,24.52,meteohub,2015-01-31 09:29:00,
2015-01-31 03:34:00,31.1,27.1,30.12,North,-999,-999.0,-999.0,85,24.19,,,24.52,meteohub,2015-01-31 09:34:00,
2015-01-31 03:58:00,19.4,15.4,30.12,North,-999,-999.0,-999.0,84,0.00,,,24.52,meteohub,2015-01-31 09:58:00,
2015-01-31 04:04:00,19.4,15.4,30.12,North,-999,-999.0,-999.0,84,0.00,,,24.52,meteohub,2015-01-31 10:04:00,
2015-01-31 04:09:00,19.4,15.4,30.11,North,-999,-999.0,-999.0,84,0.00,,,24.52,meteohub,2015-01-31 10:09:00,
2015-01-31 05:46:00,-28.3,-30.6,30.11,North,-999,-999.0,-999.0,88,-99.99,,,24.52,meteohub,2015-01-31 11:46:00,
2015-01-31 05:51:00,-28.3,-30.6,30.11,North,-999,-999.0,-999.0,88,0.00,,,99.99,meteohub,2015-01-31 11:51:00,
2015-01-31 05:56:00,-28.3,-30.6,30.11,North,-999,-999.0,-999.0,88,0.00,,,99.99,meteohub,2015-01-31 11:56:00,
2015-01-31 06:01:00,17.8,14.9,30.12,North,-999,-999.0,-999.0,88,0.00,,,99.99,meteohub,2015-01-31 12:01:00,
2015-01-31 06:06:00,17.8,14.9,30.12,North,-999,-999.0,-999.0,88,0.00,,,99.99,meteohub,2015-01-31 12:06:00,
2015-01-31 06:11:00,17.8,14.9,30.12,North,-999,-999.0,-999.0,88,0.00,,,99.99,meteohub,2015-01-31 12:11:00,
2015-01-31 08:08:00,20.1,16.7,30.12,North,-999,-999.0,-999.0,86,0.00,,,99.99,meteohub,2015-01-31 14:08:00,
2015-01-31 08:14:00,20.5,17.4,30.12,North,-999,-999.0,-999.0,88,0.00,,,99.99,meteohub,2015-01-31 14:14:00,
2015-01-31 08:19:00,20.5,17.4,30.11,North,-999,-999.0,-999.0,88,0.00,,,99.99,meteohub,2015-01-31 14:19:00,
2015-01-31 08:24:00,20.8,17.2,30.12,North,-999,-999.0,-999.0,86,0.00,,,99.99,meteohub,2015-01-31 14:24:00,
2015-01-31 08:29:00,21.0,17.4,30.12,North,-999,-999.0,-999.0,86,0.00,,,99.99,meteohub,2015-01-31 14:29:00,
2015-01-31 08:34:00,21.4,17.8,30.12,North,-999,-999.0,-999.0,86,0.00,,,99.99,meteohub,2015-01-31 14:34:00,
2015-01-31 08:39:00,21.4,17.8,30.11,North,-999,-999.0,-999.0,86,0.00,,,99.99,meteohub,2015-01-31 14:39:00,
2015-01-31 08:44:00,21.4,17.8,30.12,North,-999,-999.0,-999.0,86,0.00,,,99.99,meteohub,2015-01-31 14:44:00,
2015-01-31 08:52:00,22.5,18.3,30.12,North,-999,-999.0,-999.0,84,0.00,,,99.99,meteohub,2015-01-31 14:52:00,
2015-01-31 08:57:00,23.0,18.7,30.12,North,-999,-999.0,-999.0,83,0.00,,,99.99,meteohub,2015-01-31 14:57:00,
2015-01-31 09:02:00,23.0,18.7,30.12,North,-999,-999.0,-999.0,83,0.00,,,99.99,meteohub,2015-01-31 15:02:00,
2015-01-31 09:07:00,23.0,18.7,30.12,North,-999,-999.0,-999.0,83,0.00,,,99.99,meteohub,2015-01-31 15:07:00,
2015-01-31 09:12:00,23.4,18.7,30.12,North,-999,-999.0,-999.0,82,0.00,,,99.99,meteohub,2015-01-31 15:12:00,
2015-01-31 09:17:00,23.7,18.7,30.12,North,-999,-999.0,-999.0,81,0.00,,,99.99,meteohub,2015-01-31 15:17:00,
2015-01-31 09:22:00,23.7,18.7,30.12,North,-999,-999.0,-999.0,81,0.00,,,99.99,meteohub,2015-01-31 15:22:00,
2015-01-31 09:27:00,23.9,18.9,30.12,North,-999,-999.0,-999.0,81,0.00,,,99.99,meteohub,2015-01-31 15:27:00,
2015-01-31 09:32:00,24.1,18.9,30.12,North,-999,-999.0,-999.0,80,0.00,,,99.99,meteohub,2015-01-31 15:32:00,
2015-01-31 09:37:00,23.9,18.7,30.12,North,-999,-999.0,-999.0,80,0.00,,,99.99,meteohub,2015-01-31 15:37:00,
2015-01-31 09:42:00,24.1,18.9,30.12,North,-999,-999.0,-999.0,80,0.00,,,99.99,meteohub,2015-01-31 15:42:00,
2015-01-31 09:47:00,24.4,19.2,30.12,North,-999,-999.0,-999.0,80,0.00,,,99.99,meteohub,2015-01-31 15:47:00,
2015-01-31 09:52:00,24.4,19.2,30.12,North,-999,-999.0,-999.0,80,0.00,,,99.99,meteohub,2015-01-31 15:52:00,
2015-01-31 09:57:00,24.8,19.2,30.12,North,-999,-999.0,-999.0,79,0.00,,,99.99,meteohub,2015-01-31 15:57:00,
2015-01-31 10:02:00,25.2,19.6,30.12,North,-999,-999.0,-999.0,79,0.00,,,99.99,meteohub,2015-01-31 16:02:00,
2015-01-31 10:07:00,25.2,19.6,30.12,North,-999,-999.0,-999.0,79,0.00,,,99.99,meteohub,2015-01-31 16:07:00,
2015-01-31 10:12:00,26.8,20.5,30.12,North,-999,-999.0,-999.0,77,0.00,,,99.99,meteohub,2015-01-31 16:12:00,
2015-01-31 10:17:00,27.0,20.5,30.12,North,-999,-999.0,-999.0,76,0.00,,,99.99,meteohub,2015-01-31 16:17:00,
2015-01-31 10:22:00,27.0,20.5,30.12,North,-999,-999.0,-999.0,76,0.00,,,99.99,meteohub,2015-01-31 16:22:00,
2015-01-31 10:27:00,27.1,20.3,30.13,North,-999,-999.0,-999.0,75,0.00,,,99.99,meteohub,2015-01-31 16:27:00,
2015-01-31 10:32:00,27.3,20.8,30.13,North,-999,-999.0,-999.0,76,0.00,,,99.99,meteohub,2015-01-31 16:32:00,
2015-01-31 10:37:00,27.7,20.8,30.13,North,-999,-999.0,-999.0,75,0.00,,,99.99,meteohub,2015-01-31 16:37:00,
2015-01-31 10:42:00,27.9,20.7,30.13,North,-999,-999.0,-999.0,74,0.00,,,99.99,meteohub,2015-01-31 16:42:00,
2015-01-31 10:47:00,28.0,20.8,30.13,North,-999,-999.0,-999.0,74,0.00,,,99.99,meteohub,2015-01-31 16:47:00,
2015-01-31 10:52:00,28.4,20.8,30.13,North,-999,-999.0,-999.0,73,0.00,,,99.99,meteohub,2015-01-31 16:52:00,
2015-01-31 10:57:00,28.4,21.2,30.12,North,-999,-999.0,-999.0,74,0.00,,,99.99,meteohub,2015-01-31 16:57:00,
2015-01-31 11:02:00,28.8,21.6,30.12,North,-999,-999.0,-999.0,74,0.00,,,99.99,meteohub,2015-01-31 17:02:00,
2015-01-31 11:07:00,28.8,21.6,30.12,North,-999,-999.0,-999.0,74,0.00,,,99.99,meteohub,2015-01-31 17:07:00,
2015-01-31 11:12:00,29.3,21.4,30.12,North,-999,-999.0,-999.0,72,0.00,,,99.99,meteohub,2015-01-31 17:12:00,
2015-01-31 11:17:00,29.7,21.7,30.12,North,-999,-999.0,-999.0,72,0.00,,,99.99,meteohub,2015-01-31 17:17:00,
2015-01-31 11:22:00,30.0,21.7,30.12,North,-999,-999.0,-999.0,71,0.00,,,99.99,meteohub,2015-01-31 17:22:00,
2015-01-31 11:27:00,30.4,22.1,30.12,North,-999,-999.0,-999.0,71,0.00,,,99.99,meteohub,2015-01-31 17:27:00,
2015-01-31 11:32:00,30.9,22.3,30.12,North,-999,-999.0,-999.0,70,0.00,,,99.99,meteohub,2015-01-31 17:32:00,
2015-01-31 11:37:00,31.3,21.9,30.12,North,-999,-999.0,-999.0,68,0.00,,,99.99,meteohub,2015-01-31 17:37:00,
2015-01-31 11:42:00,31.5,22.5,30.12,North,-999,-999.0,-999.0,69,0.00,,,99.99,meteohub,2015-01-31 17:42:00,
2015-01-31 11:47:00,31.8,22.8,30.11,North,-999,-999.0,-999.0,69,0.00,,,99.99,meteohub,2015-01-31 17:47:00,
2015-01-31 11:52:00,32.2,23.2,30.11,North,-999,-999.0,-999.0,69,0.00,,,99.99,meteohub,2015-01-31 17:52:00,
2015-01-31 11:57:00,32.4,23.0,30.11,North,-999,-999.0,-999.0,68,0.00,,,99.99,meteohub,2015-01-31 17:57:00,
2015-01-31 12:02:00,32.5,23.2,30.11,North,-999,-999.0,-999.0,68,0.00,,,99.99,meteohub,2015-01-31 18:02:00,
2015-01-31 12:07:00,32.5,23.2,30.11,North,-999,-999.0,-999.0,68,0.00,,,99.99,meteohub,2015-01-31 18:07:00,
2015-01-31 12:12:00,33.8,23.0,30.10,North,-999,-999.0,-999.0,64,0.00,,,99.99,meteohub,2015-01-31 18:12:00,
2015-01-31 12:17:00,33.4,23.0,30.10,North,-999,-999.0,-999.0,65,0.00,,,99.99,meteohub,2015-01-31 18:17:00,
2015-01-31 12:22:00,33.8,23.0,30.10,North,-999,-999.0,-999.0,64,0.00,,,99.99,meteohub,2015-01-31 18:22:00,
2015-01-31 12:27:00,33.8,23.4,30.10,North,-999,-999.0,-999.0,65,0.00,,,99.99,meteohub,2015-01-31 18:27:00,
2015-01-31 12:32:00,34.5,23.9,30.09,North,-999,-999.0,-999.0,65,0.00,,,99.99,meteohub,2015-01-31 18:32:00,
2015-01-31 12:37:00,35.4,24.4,30.10,North,-999,-999.0,-999.0,64,0.00,,,99.99,meteohub,2015-01-31 18:37:00,
2015-01-31 12:42:00,35.6,23.9,30.10,North,-999,-999.0,-999.0,62,0.00,,,99.99,meteohub,2015-01-31 18:42:00,
2015-01-31 12:47:00,35.4,24.1,30.10,North,-999,-999.0,-999.0,63,0.00,,,99.99,meteohub,2015-01-31 18:47:00,
2015-01-31 12:52:00,35.4,23.7,30.09,North,-999,-999.0,-999.0,62,0.00,,,99.99,meteohub,2015-01-31 18:52:00,
2015-01-31 12:57:00,34.9,23.9,30.09,North,-999,-999.0,-999.0,64,0.00,,,99.99,meteohub,2015-01-31 18:57:00,
2015-01-31 13:02:00,34.7,23.7,30.09,North,-999,-999.0,-999.0,64,0.00,,,99.99,meteohub,2015-01-31 19:02:00,
2015-01-31 13:07:00,34.7,23.7,30.09,North,-999,-999.0,-999.0,64,0.00,,,99.99,meteohub,2015-01-31 19:07:00,
2015-01-31 13:12:00,35.2,24.3,30.09,North,-999,-999.0,-999.0,64,0.00,,,99.99,meteohub,2015-01-31 19:12:00,